Regional Weather Roundup
Issued by NWS Little Rock, AR

Home | Current Version | Previous Version | Graphics & Text | Print | Product List | Glossary Off
Versions: 1 2 3 4 5 6 7 8 9 10 11 12 13 14 15 16 17 18 19 20 21 22 23 24 25 26 27 28 29 30 31 32 33 34 35 36 37 38 39 40 41 42 43 44 45 46 47 48 49 50

000
ASUS44 KLZK 272105
RWRLZK

WEATHER ROUNDUP FOR ARKANSAS
NATIONAL WEATHER SERVICE LITTLE ROCK AR
400 PM CDT MON MAR 27 2017

NOTE: "FAIR" INDICATES FEW OR NO CLOUDS BELOW 12,000 FEET WITH NO
SIGNIFICANT WEATHER AND/OR OBSTRUCTIONS TO VISIBILITY.

ARZ001-003-010-029-272200-
NORTHWEST ARKANSAS

CITY           SKY/WX    TMP DP  RH WIND       PRES   REMARKS
FAYETTEVILLE   CLOUDY    56  54  93 NW10      29.90R
FORT SMITH     CLOUDY    64  53  67 W12       29.88S
HARRISON       CLOUDY    64  55  72 NW12      29.85R
BENTONVILLE    CLOUDY    54  50  87 NW12      29.91R
ROGERS         CLOUDY    56  52  86 NW10      29.90R
SILOAM SPGS    CLOUDY    54  48  82 NW12      29.91R
HIGHFILL       CLOUDY    55  51  86 NW9       29.90R
SPRINGDALE     CLOUDY    57  54  88 W9        29.91R
$$

ARZ004-005-016-272200-
NORTH CENTRAL ARKANSAS

CITY           SKY/WX    TMP DP  RH WIND       PRES   REMARKS
BATESVILLE     PTSUNNY   75  57  53 W9G17     29.78S
FLIPPIN        MOSUNNY   68  52  56 NW7       29.81R
MTN HOME       SUNNY     69  53  56 VRB7      29.82R
$$

ARZ040-041-272200-
WEST CENTRAL ARKANSAS

CITY           SKY/WX    TMP DP  RH WIND       PRES   REMARKS
MENA           MOSUNNY   70  61  73 W15       29.87S
MOUNT IDA      SUNNY     74  57  55 N10       29.81R
$$

ARZ009-017-025-026-028-272200-
NORTHEAST ARKANSAS

CITY           SKY/WX    TMP DP  RH WIND       PRES   REMARKS
CORNING        MOCLDY    66  61  82 W6        29.80S
JONESBORO      LGT RAIN  69  61  75 NW8       29.78R
NEWPORT        MOSUNNY   73  66  78 VRB3      29.77S
WALNUT RIDGE   SUNNY     70  61  73 N7        29.79S
BLYTHEVILLE    CLOUDY    65  63  93 N9        29.79R
NW BLYTHEVILLE TSTM      64  59  82 N10       29.79S
$$

ARZ022-023-033-042-044-272200-
CENTRAL ARKANSAS

CITY           SKY/WX    TMP DP  RH WIND       PRES   REMARKS
LITTLE ROCK    MOSUNNY   80  61  52 SW14G21   29.78F
N LITTLE ROCK    N/A     79  61  53 W8G16     29.78F
JACKSONVILLE   MOSUNNY   81  60  49 SW18G24   29.77F
CONWAY           N/A     77  63  61 NW12      29.78R
SEARCY         MOSUNNY   81  61  50 SW9G20    29.78S
HOT SPRINGS    SUNNY     80  57  45 W14       29.80F
RUSSELLVILLE   SUNNY     73  56  54 NW15G24   29.81S
CLINTON        FAIR      75  55  50 SW13G22   29.79R
$$

ARZ036-272200-
EAST ARKANSAS

CITY           SKY/WX    TMP DP  RH WIND       PRES   REMARKS
WEST MEMPHIS   CLOUDY    80  64  58 W16G24    29.76F
$$

ARZ050-053-066-070-073-272200-
SOUTHWEST ARKANSAS

CITY           SKY/WX    TMP DP  RH WIND       PRES   REMARKS
ARKADELPHIA    MOCLDY    80  63  55 SW20      29.80F
CAMDEN         MOSUNNY   82  59  44 SW10      29.81F
TEXARKANA      PTSUNNY   77  62  59 SW10      29.83F
EL DORADO      PTSUNNY   80  64  58 SW10G22   29.84F
DE QUEEN       SUNNY     75  60  59 W10       29.82F
$$

ARZ056-057-069-272200-
SOUTHEAST ARKANSAS

CITY           SKY/WX    TMP DP  RH WIND       PRES   REMARKS
PINE BLUFF     PTSUNNY   80  61  52 SW14      29.80F
STUTTGART      PTSUNNY   81  59  47 SW20      29.80F

$$





USA.gov is the U.S. government's official web portal to all federal, state and local government web resources and services.